Miscellaneous Local Product
Issued by NWS North Platte, NE

Home | Current Version | Previous Version | Graphics & Text | Print | Product List | Glossary On
Versions: 1 2 3 4 5 6 7 8 9 10 11 12 13 14 15 16 17 18 19 20 21 22 23 24 25 26 27 28 29 30 31 32 33 34 35 36 37 38 39 40 41 42 43 44 45 46 47 48 49 50
207
AXUS43 KLBF 131310
MISLBF


WESTERN AND NORTH CENTRAL NEBRASKA HOURLY WEATHER ROUNDUP
NATIONAL WEATHER SERVICE NORTH PLATTE NE
700 AM CST WED DEC 13 2017

NOTE: "FAIR" INDICATES FEW OR NO CLOUDS BELOW 12,000 FEET WITH NO
SIGNIFICANT WEATHER AND/OR OBSTRUCTIONS TO VISIBILITY.

NOTE: STATIONS NOT REPORTING VARIABLES SUCH AS SKY/WEATHER OR
PRESSURE ARE PROVIDED BY RAWS AND APRS NETWORKS AND ARE NOT UNDER
NATIONAL WEATHER SERVICE QUALITY CONTROL.

...OBSERVATIONS IN AND NEAR THE EASTERN PANHANDLE OF NEBRASKA...

CITY           SKY/WX    TMP DP  RH WIND       PRES   REMARKS
PINE RIDGE     CLEAR     32  19  58 NW10      30.02R WCI  24
GORDON         FAIR      39  19  44 NW15      29.98S WCI  31
CHADRON        CLOUDY    40  15  36 NW21G28   30.05R WCI  30
ALLIANCE       CLEAR     42  17  36 NW22      30.01R
SIDNEY         CLOUDY    38  10  31 NW13      30.07R WCI  30
CRESCENT LAKE    N/A     43  16  33 NW20G33     N/A
$$

...OBSERVATIONS IN NORTHERN NEBRASKA AND FAR SOUTHERN SOUTH DAKOTA...

CITY           SKY/WX    TMP DP  RH WIND       PRES   REMARKS
WINNER         FAIR      45  25  45 NW32G41   29.85R
VALENTINE      CLEAR     45  21  38 NW18G32   29.88R
THEDFORD       CLEAR     47  21  35 NW23G31   29.91R
AINSWORTH      CLEAR     45  23  42 NW35G45   29.86R
O`NEILL        CLEAR     46  26  46 NW35G44   29.78R
ORD            CLEAR     49  21  33 NW28G48   29.81R
BROKEN BOW     CLEAR     48  20  32 NW25G36   29.87R
VALENTINE NWR    N/A     45  19  35 NW24G39     N/A
HALSEY           N/A     47  18  31 NW15G30     N/A
BUTTE            N/A     44  27  51 NW26G52     N/A
CHAMBERS         N/A     46  22  39 N12G20      N/A
EWING            N/A     46  26  46 NW21G36     N/A
$$

...OBSERVATIONS IN SOUTHWEST NEBRASKA AND FAR NORTHEAST COLORADO...

CITY           SKY/WX    TMP DP  RH WIND       PRES   REMARKS
WRAY           FAIR      46  10  23 NW10      30.06R
HOLYOKE        FAIR      50  12  22 NW13G21   30.05R
IMPERIAL       CLOUDY    50  14  23 NW20G32   30.00R
OGALLALA       CLEAR     47  14  25 NW20G26   30.00R
NORTH PLATTE   CLEAR     30  19  63 NW8       29.95R WCI  22
MCCOOK         CLOUDY    41  17  38 W10       29.96R
LEXINGTON      CLOUDY    46  20  35 NW25G33   29.89R
STAPLETON        N/A     45  20  37 N5G13       N/A
GOTHENBURG       N/A     46  18  32 NW9         N/A
CALLAWAY         N/A     48  22  35 NW25        N/A
$$

...OBSERVATIONS IN CENTRAL LINCOLN COUNTY AREA...

CITY           SKY/WX    TMP DP  RH WIND       PRES   REMARKS
N.P. AIRPORT   CLEAR     30  19  63 NW8       29.95R WCI  22
N.P. DOWNTOWN    N/A     40  18  40 W3          N/A
N.P. SOUTHEAST   N/A     42  17  35 NW5G13      N/A
N.P. HILLCREST   N/A     41  18  39 NW8         N/A
$$

...SOME OBSERVATIONS FROM AROUND THE REGION...

CITY           SKY/WX    TMP DP  RH WIND       PRES   REMARKS
DENVER         CLOUDY    36   6  28 E8        30.13R WCI  30
GRAND JUNCTION CLOUDY    17   7  64 CALM      30.25F
LARAMIE        CLOUDY    29   5  36 W12       30.16S WCI  19
CHEYENNE       CLOUDY    35   9  33 NW6       30.14R WCI  30
CASPER         CLOUDY    23  17  78 W5        30.18R WCI  17
BISMARCK       CLEAR     36  30  79 NW22G35   29.84R WCI  25
RAPID CITY     CLEAR     44  16  32 NW32G41   29.97R
PIERRE         CLEAR     41  28  60 NW23G35   29.83R
SIOUX FALLS    LGT RAIN  40  36  86 NW28G43   29.61R WCI  29
OMAHA          CLOUDY    49  24  37 NW15      29.64R
GRAND ISLAND   CLOUDY    52  20  28 NW37G49   29.80R
SCOTTSBLUFF    CLEAR     37  14  38 NW10      30.08R WCI  30
KANSAS CITY    PTCLDY    36  26  67 W12       29.70R WCI  28
HILL CITY      CLOUDY    46  16  30 NW10      29.95R
WICHITA        CLOUDY    31  23  72 CALM      29.85R
DODGE CITY     CLEAR     39  15  37 NW13      29.97R WCI  31
OKLAHOMA CITY  CLEAR     34  23  64 S10       29.91F WCI  26
DALLAS         PTCLDY    34  27  75 S7        30.05S WCI  28
AMARILLO       CLOUDY    34  10  37 W6        30.01R WCI  29
$$




USA.gov is the U.S. government's official web portal to all federal, state and local government web resources and services.